Location: Votelez
(50.0000°N, 15.0000°E)
Time: 10:59:18
(UTC+01:00)

ISS - Pass Details

Date: 20 February 2026
Orbit: 416 x 426 km, 51.6° (Epoch: 10 March)

Event Time Altitude Azimuth Distance (km) Brightness Sun altitude
Exits shadow 04:57:52 76° 137° (SE) 434 -3.7 -20.5°
Drops below altitude 10° 05:01:07 10° 75° (ENE) 1,495 0.2 -20.0°
Sets 05:03:13 0° 74° (ENE) 2,359 1.6 -19.7°
